Stations météo

réclame
Mon MeteoGroup
Angelholm, Suède (2607): Température de l'air & dewpoint: 10.01.2018 10:00:00 - 16.01.2018 10:00:00 (CET)Angelholm, Suède (2607): Vitesse du vent: 10.01.2018 10:00:00 - 16.01.2018 10:00:00 (CET)Angelholm, Suède (2607): Direction du vent: 10.01.2018 10:00:00 - 16.01.2018 10:00:00 (CET)Angelholm, Suède (2607): reduced air pressure: 10.01.2018 10:00:00 - 16.01.2018 10:00:00 (CET)Angelholm, Suède (2607): visibility: 10.01.2018 10:00:00 - 16.01.2018 10:00:00 (CET)
Date & Time tt [°C] td [°C] ff [km/h] ff [knt] dd ppp [hPa] vv [km]
16.01.2018 10:00:00 1,8 1,3 13 7 SE 983,6 10
16.01.2018 09:00:00 1,7 1,1 16 9 SSE 983,2 8
16.01.2018 08:00:00 1,7 1,1 24 13 SSE 982,7 10
16.01.2018 07:00:00 0,5 0,2 34 18 SE 982,7 4,6
16.01.2018 06:00:00 0,2 0,1 37 20 SE 983,1 0,8
16.01.2018 05:00:00 0,3 0,0 39 21 SE 984,2 3,3
16.01.2018 04:00:00 0,0 -0,1 35 19 SE 985,7 1,0
16.01.2018 03:00:00 0,1 0,0 35 19 ESE 987,2 1,3
16.01.2018 02:00:00 0,2 0,1 34 18 SE 989,1 3,2
16.01.2018 01:00:00 0,2 -0,2 34 18 SE 990,9 2,0
16.01.2018 00:00:00 0,1 -0,3 35 19 SE 992,9 2,2
15.01.2018 23:00:00 0,1 -0,3 35 19 SE 994,4 1,8
15.01.2018 22:00:00 0,1 -0,5 37 20 SE 996,0 2,2
15.01.2018 21:00:00 0,2 -0,5 34 18 SE 997,9 3,2
15.01.2018 20:00:00 0,3 -0,8 37 20 SE 999,6 4,5
15.01.2018 19:00:00 0,4 -1,0 39 21 SE 1001,0 3,1
15.01.2018 18:00:00 0,8 -1,9 39 21 SE 1002,6 10
15.01.2018 17:00:00 0,4 -2,3 37 20 SE 1003,8 10
15.01.2018 16:00:00 0,1 -2,8 35 19 SE 1005,9 10
15.01.2018 15:00:00 0,3 -2,9 37 20 SE 1007,2 10
15.01.2018 14:00:00 0,4 -3,2 35 19 SE 1008,9 10
15.01.2018 13:00:00 0,1 -3,5 35 19 SE 1010,6 10
15.01.2018 12:00:00 0,0 -3,7 35 19 SE 1012,4 10
15.01.2018 11:00:00 -0,2 -3,7 39 21 SSE 1014,3 10
15.01.2018 10:00:00 -0,3 -4,0 37 20 SE 1015,5 10
15.01.2018 09:00:00 -0,4 -4,3 39 21 SSE 1016,4 10
15.01.2018 08:00:00 -0,4 -4,3 37 20 SSE 1017,4 10
15.01.2018 07:00:00 -0,3 -3,8 37 20 SSE 1018,2 10
15.01.2018 06:00:00 -0,7 -3,7 26 14 SE 1019,4 10
15.01.2018 05:00:00 -1,0 -4,0 28 15 SSE 1020,7 10
15.01.2018 04:00:00 -1,4 -4,6 29 16 SE 1021,8 10
15.01.2018 03:00:00 -1,4 -4,7 24 13 SE 1023,0 10
15.01.2018 02:00:00 -1,8 -5,1 26 14 ESE 1023,9 10
15.01.2018 01:00:00 -1,9 -5,2 29 16 SE 1024,9 10
15.01.2018 00:00:00 -2,0 -5,7 35 19 SE 1025,7 10
14.01.2018 23:00:00 -2,0 -5,8 31 17 SE 1026,6 10
14.01.2018 22:00:00 -2,1 -5,8 28 15 SE 1027,4 10
14.01.2018 21:00:00 -2,2 -5,5 24 13 SE 1027,8 10
14.01.2018 20:00:00 -2,2 -6,4 28 15 SE 1028,7 10
14.01.2018 19:00:00 -2,1 -5,9 22 12 SE 1028,7 10
14.01.2018 18:00:00 -1,8 -5,5 22 12 SE 1029,3 10
14.01.2018 17:00:00 -1,6 -5,6 26 14 SE 1030,1 10
14.01.2018 16:00:00 -1,4 -5,8 26 14 ESE 1030,2 10
14.01.2018 15:00:00 -1,0 -5,2 21 11 SE 1030,5 10
14.01.2018 14:00:00 -0,7 -5,5 26 14 SE 1031,0 10
14.01.2018 13:00:00 -0,8 -5,2 28 15 SE 1031,5 10
14.01.2018 12:00:00 -0,8 -4,9 21 11 SE 1031,9 10
14.01.2018 11:00:00 -0,8 -5,2 24 13 SE 1032,4 10
14.01.2018 10:00:00 -0,8 -5,2 24 13 ESE 1032,6 10
14.01.2018 09:00:00 -0,8 -5,2 18 10 SE 1032,6 10
14.01.2018 08:00:00 -0,8 -5,6 18 10 SE 1032,7 10
14.01.2018 07:00:00 -0,7 -5,9 21 11 SE 1032,8 10
14.01.2018 06:00:00 -0,7 -4,9 15 8 SE 1033,0 10
14.01.2018 05:00:00 -0,7 -4,6 15 8 SE 1033,1 10
14.01.2018 04:00:00 -0,8 -5,0 15 8 ESE 1033,5 10
14.01.2018 03:00:00 -0,7 -5,7 22 12 ESE 1033,9 10
14.01.2018 02:00:00 -0,8 -6,2 24 13 ESE 1034,4 10
14.01.2018 01:00:00 -0,8 -6,0 22 12 ESE 1034,7 10
14.01.2018 00:00:00 -0,9 -5,7 22 12 ESE 1034,9 10
13.01.2018 23:00:00 -0,9 -5,9 24 13 ESE 1035,3 10
13.01.2018 22:00:00 -0,9 -4,9 21 11 SE 1035,3 10
13.01.2018 21:00:00 -0,6 -4,7 22 12 ESE 1035,4 10
13.01.2018 20:00:00 -0,3 -4,4 21 11 ESE 1035,4 10
13.01.2018 19:00:00 -0,2 -4,3 21 11 ESE 1035,5 10
13.01.2018 18:00:00 -0,2 -4,3 21 11 ESE 1035,7 10
13.01.2018 17:00:00 -0,1 -3,8 21 11 ESE 1035,7 10
13.01.2018 16:00:00 0,0 -3,7 15 8 ESE 1035,7 10
13.01.2018 15:00:00 0,1 -3,3 15 8 ESE 1035,8 10
13.01.2018 14:00:00 0,2 -3,5 16 9 ESE 1035,9 10
13.01.2018 13:00:00 0,3 -4,0 22 12 ESE 1036,2 10
13.01.2018 12:00:00 0,5 -3,8 21 11 ESE 1036,3 10
13.01.2018 11:00:00 0,4 -3,3 22 12 ESE 1036,3 10
13.01.2018 10:00:00 0,6 -3,3 24 13 ESE 1036,4 10
13.01.2018 09:00:00 0,8 -3,5 24 13 ESE 1036,2 10
13.01.2018 08:00:00 0,7 -3,0 22 12 ESE 1035,8 45
13.01.2018 07:00:00 0,6 -1,6 13 7 ESE 1035,6 10
13.01.2018 06:00:00 0,7 -1,4 15 8 E 1035,5 10
13.01.2018 05:00:00 0,8 -1,1 15 8 ESE 1035,6 10
13.01.2018 04:00:00 0,7 -0,9 16 9 E 1035,6 10
13.01.2018 03:00:00 0,6 -0,5 18 10 E 1035,9 10
13.01.2018 02:00:00 0,7 -1,1 18 10 E 1035,9 10
13.01.2018 01:00:00 0,8 -1,0 18 10 E 1036,0 10
13.01.2018 00:00:00 0,8 -1,0 16 9 E 1036,4 10
12.01.2018 23:00:00 1,0 -1,2 16 9 ESE 1036,1 10
12.01.2018 22:00:00 0,8 -1,1 15 8 E 1035,9 10
12.01.2018 21:00:00 0,8 -1,1 16 9 E 1035,9 10
12.01.2018 20:00:00 0,9 -1,3 22 12 E 1035,4 10
12.01.2018 19:00:00 1,1 -1,0 22 12 E 1035,2 10
12.01.2018 18:00:00 1,1 -0,8 18 10 E 1035,0 10
12.01.2018 17:00:00 1,1 -0,7 18 10 E 1035,0 10
12.01.2018 16:00:00 1,2 -0,3 18 10 E 1034,8 10
12.01.2018 15:00:00 1,3 0,1 15 8 E 1034,6 10
12.01.2018 14:00:00 1,3 -0,2 15 8 E 1034,6 10
12.01.2018 13:00:00 1,7 -0,7 16 9 E 1034,3 10
12.01.2018 12:00:00 1,6 -1,1 18 10 E 1034,1 10
12.01.2018 11:00:00 1,5 -1,2 18 10 E 1034,1 10
12.01.2018 10:00:00 1,3 -1,4 24 13 E 1033,4 10
12.01.2018 09:00:00 1,3 -1,4 18 10 E 1032,8 10
12.01.2018 08:00:00 1,2 -1,5 21 11 E 1032,2 10
12.01.2018 07:00:00 1,2 -2,0 22 12 E 1031,5 10
12.01.2018 06:00:00 1,3 -1,9 24 13 E 1030,7 10
12.01.2018 05:00:00 1,5 -1,6 21 11 E 1030,4 10
12.01.2018 04:00:00 1,5 -1,7 18 10 E 1030,1 10
12.01.2018 03:00:00 1,6 -1,3 22 12 E 1029,5 10
12.01.2018 02:00:00 1,7 -1,6 21 11 E 1029,0 10
12.01.2018 01:00:00 1,7 -1,2 18 10 E 1028,5 10
12.01.2018 00:00:00 1,5 -1,1 22 12 E 1027,9 10
11.01.2018 23:00:00 1,5 -1,2 22 12 E 1027,2 10
11.01.2018 22:00:00 1,5 -1,2 22 12 E 1026,3 10
11.01.2018 21:00:00 1,5 -0,9 24 13 E 1025,7 10
11.01.2018 20:00:00 1,6 -0,8 22 12 E 1024,9 10
11.01.2018 19:00:00 1,8 -0,6 21 11 E 1024,0 10
11.01.2018 18:00:00 2,0 -0,4 21 11 E 1023,8 10
11.01.2018 17:00:00 2,2 -0,1 18 10 E 1023,3 10
11.01.2018 16:00:00 2,2 0,1 11 6 E 1022,8 10
11.01.2018 15:00:00 3,0 0,7 16 9 E 1022,0 10
11.01.2018 14:00:00 3,2 1,4 15 8 E 1021,4 10
11.01.2018 13:00:00 3,0 1,5 21 11 E 1021,2 10
11.01.2018 12:00:00 3,1 1,3 26 14 E 1020,8 10
11.01.2018 11:00:00 3,1 1,3 22 12 E 1020,5 10
11.01.2018 10:00:00 3,0 1,5 22 12 E 1019,9 10
11.01.2018 09:00:00 3,1 1,9 16 9 E 1019,2 10
11.01.2018 08:00:00 3,2 2,0 15 8 E 1018,3 10
11.01.2018 07:00:00 3,3 2,1 15 8 E 1017,7 10
11.01.2018 06:00:00 3,1 2,2 15 8 E 1017,4 10
11.01.2018 05:00:00 3,1 1,9 15 8 E 1017,2 9
11.01.2018 04:00:00 3,0 2,1 13 7 E 1017,2 8
11.01.2018 03:00:00 3,0 1,8 15 8 E 1016,8 10
11.01.2018 02:00:00 2,9 1,7 15 8 E 1016,5 10
11.01.2018 01:00:00 2,8 1,9 15 8 E 1016,3 10
11.01.2018 00:00:00 2,9 2,0 13 7 E 1016,1 10
10.01.2018 23:00:00 3,0 1,8 15 8 E 1016,1 10
10.01.2018 22:00:00 3,1 1,9 16 9 E 1015,6 10
10.01.2018 21:00:00 3,1 2,2 15 8 ESE 1015,5 7
10.01.2018 20:00:00 3,0 2,1 16 9 ESE 1015,4 7
10.01.2018 19:00:00 3,1 1,8 18 10 E 1015,2 10
10.01.2018 18:00:00 3,2 1,9 18 10 E 1015,0 10
10.01.2018 17:00:00 3,1 1,8 16 9 ESE 1014,8 10
10.01.2018 16:00:00 3,2 1,7 18 10 ESE 1014,6 10
10.01.2018 15:00:00 3,3 2,0 15 8 ESE 1014,6 10
10.01.2018 14:00:00 3,0 1,8 16 9 SE 1014,5 10
10.01.2018 13:00:00 3,2 2,0 16 9 SE 1014,2 8
10.01.2018 12:00:00 3,1 1,9 24 13 E 1014,0 7
10.01.2018 11:00:00 3,1 1,8 22 12 ESE 1014,4 10
10.01.2018 10:00:00 2,9 1,4 21 11 ESE 1014,6 10

tt = Température de l'air
td = dewpoint
ff = Vitesse du vent
dd = Direction du vent
ppp = reduced air pressure
vv = visibility

stations d'obs. à proximité